Location: ?
(35.4064°N, 139.3593°E)
Time: 03:51:45
(UTC+00:00)

Cosmos 2263 Rocket - Pass Details

Date: 18 April 2024
Orbit: 824 x 847 km, 71.0° (Epoch: 20 May)

Event Time Altitude Azimuth Distance (km) Brightness Sun altitude
Rises 12:32:36 0° 350° (N) 3,384 6.1 -34.4°
Reaches altitude 10° 12:35:27 10° 3° (N) 2,442 5.1 -34.7°
Enters shadow 12:37:44 20° 23° (NNE) 1,839 4.2 -35.0°
